Simultaneous Nadir Overpasses (SNOs) Predictions

Prediction of SNOs between AQUA and NPP Satellite Orbit:

Table of predicted SNOs for the next 14.0 days since TLE Epoch: 5/7/2022
Index Date (AQUA) Time (AQUA) Lat,Lon (AQUA) SZA (AQUA ) Date (NPP) Time (NPP) Lat,Lon (NPP) SZA (NPP ) Distance(km) Time Diff (sec)
1 05/09/2022 02:07:53 77.53, 33.19 78.09 05/09/2022 02:07:08 77.54, 33.24 78.11 1.37 45
2 05/09/2022 02:57:05 -78.21,-156.13 102.79 05/09/2022 02:57:37 -78.22,-156.02 102.83 2.44 32
3 05/11/2022 17:36:46 -70.82, -35.23 95.13 05/11/2022 17:35:32 -71.00, -36.24 94.94 42.00 74
4 05/11/2022 18:23:52 77.83, 150.45 77.03 05/11/2022 18:23:53 77.82, 150.40 77.04 1.16 1
5 05/11/2022 19:10:13 -81.51, 21.94 113.43 05/11/2022 19:11:26 -80.90, 20.99 113.72 70.28 73
6 05/14/2022 09:50:36 -77.69, 98.18 103.45 05/14/2022 09:50:05 -77.69, 98.22 103.43 0.94 31
7 05/14/2022 10:39:49 78.22, -91.74 75.87 05/14/2022 10:40:36 78.22, -91.75 75.84 0.32 47
8 05/17/2022 01:17:24 77.23, 44.64 76.53 05/17/2022 01:16:23 77.22, 44.54 76.60 2.47 61
9 05/17/2022 02:06:35 -77.97,-144.58 104.41 05/17/2022 02:06:51 -77.97,-144.63 104.42 1.15 16
10 05/19/2022 17:33:17 77.76, 162.82 75.30 05/19/2022 17:33:03 77.75, 162.76 75.32 1.63 14



Historial Predications of SNOs between AQUA and NPP
